Карточка аэропорта USHH

Внимание!
Информация на этой странице в стадии наполнения.
Если вы не увидели какой-то информации, или заметили неточность - пожалуйста сообщите нам!
Спасибо!
Команда RU-STAFF
Название аэропортаХанты-Мансийск
Название аэропорта (англ.)Khanty-Mansiysk
Превышение141 ft. (43 m.)
Координаты61°1.7039999999999', 69°5.1599999999999'
Высота перехода3000ft
Эшелон переходаQNH>=1013hPa:FL040; QNH>=977hPa:FL050; QNH<=977hPa:FL060
Коды ответчика5150-5177
Зона ОрВДТюмень РПИ (USTV)
Данные METARUSHH 122130Z 25006MPS CAVOK 04/M03 Q0990 R24/190060 NOSIG
Проноз погоды (TAF)USHH 121933Z 1221/1321 25005G12MPS 9999 BKN016 TEMPO 1221/1303 5000 BR SCT004 OVC016 BECMG 1309/1310 34003G12MPS
NOTAMshow/hide NOTAM
AWOS   TABLE

Информация о ВПП

ВПП Длина ВПП (м.) Покрытие Курс ВПП Частота ILS
062800Асфальтобетон58111.9
242800Асфальтобетон238110.1

Диспетчерские позиции

Позывной Наименование органа УВД Частота
USHH_TWRХантым-Вышка118.1
USHH_R_APPХантым-Круг120.4



Спутниковое изображение